Regional Weather Roundup
Issued by NWS Portland, ME

Current Version | Previous Version | Text Only | Print | Product List | Glossary Off
Versions: 1 2 3 4 5 6 7 8 9 10 11 12 13 14 15 16 17 18 19 20 21 22 23 24 25 26 27 28 29 30 31 32 33 34 35 36 37 38 39 40 41 42 43 44 45 46 47 48 49 50
092 ASUS41 KGYX 282210 RWRGYX WEATHER ROUNDUP FOR MAINE AND NEW HAMPSHIRE NATIONAL WEATHER SERVICE GRAY ME 600 PM EDT SUN MAY 28 2017 MEZ002-005-006-010-012-015-018-020-021-024-026-027-029-282300- MAINE CITY SKY/WX TMP DP RH WIND PRES REMARKS PORTLAND PTSUNNY 53 47 79 S7 30.02R SANFORD PTSUNNY 55 48 77 VRB6 30.00S BAR HARBOR CLOUDY 52 45 77 S10 30.02F WISCASSET MOSUNNY 54 45 71 S7 30.03S ROCKLAND MOSUNNY 52 45 77 S10 30.02F FRYEBURG MOSUNNY 67 52 58 SE13 29.95S LEWISTONAUBURN MOSUNNY 58 49 72 SE8 29.99S AUGUSTA SUNNY 61 47 59 S6 29.99S WATERVILLE CLOUDY 64 50 60 VRB6 29.95S BANGOR PTSUNNY 59 47 64 S16G22 29.98S GREENVILLE N/A 68 43 40 S8 29.92S MILLINOCKET MOSUNNY 71 46 40 VRB5 29.93F HOULTON MOSUNNY 69 48 47 SE6 29.93R PRESQUE ISLE LGT RAIN 64 54 69 CALM 29.95R FRENCHVILLE CLOUDY 66 46 48 NW5 29.93R CARIBOU CLOUDY 68 52 56 SW9 29.93R $$ NHZ002-005-008-009-011-012-014-282300- NEW HAMPSHIRE CITY SKY/WX TMP DP RH WIND PRES REMARKS PORTSMOUTH PTSUNNY 53 48 83 SE12 29.98F ROCHESTER PTSUNNY 57 48 72 S8 29.98S NASHUA CLOUDY 64 55 72 SE9 29.96F MANCHESTER CLOUDY 65 53 65 SE7 29.94F CONCORD CLOUDY 65 55 70 SE12G18 29.95S LACONIA CLOUDY 67 52 58 S10 29.95R PLYMOUTH FAIR 71 54 53 SE10G16 29.91F BERLIN PTSUNNY 70 48 45 S8G17 29.92S WHITEFIELD CLOUDY 65 54 67 W3 29.91S JAFFREY CLOUDY 66 58 75 VRB5 29.95F KEENE CLOUDY 67 58 72 CALM 29.93 LEBANON MOSUNNY 74 53 48 S13 29.90S MT WASHINGTON FOG 43 43 100 S9 N/A VSB 1/8 $$ VTZ005-007-008-282300- VERMONT CITY SKY/WX TMP DP RH WIND PRES REMARKS MONTPELIER MOSUNNY 70 51 51 S13 29.92F BURLINGTON PTSUNNY 77 51 40 S13 29.84F $$ MAZ007-012-024-CTZ003-RIZ002-NYZ038-NYZ072-282300- SOUTHERN NEW ENGLAND AND NY CITY SKY/WX TMP DP RH WIND PRES REMARKS BOSTON CLOUDY 61 55 81 NE3 29.97F WORCESTER CLOUDY 64 52 64 S8 29.97S NANTUCKET CLOUDY 52 46 80 SE12 30.01F PROVIDENCE CLOUDY 61 53 75 S10 29.99S HARTFORD CLOUDY 68 55 63 S12 29.95R ALBANY CLOUDY 72 56 57 SE9 29.88S NEW YORK CITY CLOUDY 67 48 50 SE10 29.95R $$ ANZ081-ANZ082-ANZ150-NHZ014-MEZ023>029-282300- COASTAL MARINE OBSERVATIONS STATION/POSITION TIME TEMP WIND PRES WAVE AIR SEA DIR/SP/G HT/PER (UTC) (F) (DEG/KT/KT) (MB) (FT/S) MOUNT DESERT ROC 2200 49 1017.3F MATINICUS ROCK 2100 49 200/ 10/ 10 1017.0R ISLE OF SHOALS 2100 50 130/ 14/ 15 1015.6S JEFFREYS LEDGE 2136 50 N/A 4/ 8 CASHES LEDGE BUO 2050 49 49 1017.3 2/ 8 GEORGES BANK BUO 2050 47 48 1017.3 4/ 8 $$ .............KEY.............. WCI - WIND CHILL TC - TEMPERATURE IN CELSIUS VSB - VISIBILITY IN MILES HX - HEAT INDEX FAIR- INDICATES FEW OR NO CLOUDS BELOW 12,000 FT, WITH NO SIGNIFICANT WEATHER AND/OR OBSTRUCTIONS TO VISIBILITY.

USA.gov is the U.S. government's official web portal to all federal, state and local government web resources and services.